Temp_Advection
nan nan nan nan nan nan nan nan nan nan nan nan nan nan nan nan nan nan nan nan nan nan nan nan nan nan nan nan nan nan nan nan nan nan nan nan nan nan nan nan nan nan
nan 0 0 0 0 0 0 0 0 0 0 0 0 -0 0 0 0 0 0 0 0 0 0 0 0 0 -0 0 0 1 1 1 1 1 1 1 1 1 0 0 0 nan
nan 0 0 0 0 0 0 0 0 0 0 0 -0 0 0 0 0 0 0 0 0 0 0 0 0 0 0 0 0 0 0 1 1 1 1 1 1 1 0 0 0 nan
nan 0 0 0 0 0 0 0 0 0 0 0 -0 0 0 0 0 0 0 0 0 0 0 0 0 0 0 -0 -0 0 1 1 0 1 1 1 1 0 0 0 0 nan
nan 0 0 0 0 0 0 0 0 0 0 0 0 0 0 0 0 0 0 0 0 0 0 0 0 0 0 -0 0 0 0 0 0 1 1 0 -0 -0 -0 -0 -0 nan
nan 0 0 0 0 0 0 0 0 0 0 0 0 0 0 0 0 0 0 0 0 0 0 0 0 0 0 0 0 0 0 -0 0 0 -0 -0 -0 -0 -0 -0 -0 nan
nan -0 -0 -0 -0 0 0 0 0 0 0 0 0 0 0 0 0 0 0 0 0 0 0 0 0 0 0 0 0 0 0 0 0 -0 -0 -0 -0 -0 0 0 -0 nan
nan -0 -0 -0 -0 -0 -0 0 0 0 0 0 0 0 -0 -0 -0 0 0 0 0 0 0 0 0 0 0 0 0 0 0 0 0 0 0 0 0 0 0 0 0 nan
nan -0 -0 -0 -0 -0 -0 -0 -0 -0 -0 -0 -0 -0 -0 -0 -0 -0 -0 -0 -0 0 0 0 0 0 0 0 0 0 0 0 0 0 0 0 0 0 0 0 0 nan
nan -0 -0 -0 -0 -0 -0 -0 -0 -0 -0 -0 -0 -0 -0 -0 -0 -0 -0 -0 -0 -0 -0 -0 -0 0 0 0 0 0 0 0 0 0 0 0 0 0 0 0 0 nan
nan -0 -0 -0 -0 -0 -0 -0 -0 -0 -0 -0 -0 -0 -0 -0 -0 -0 -0 -0 -0 -0 -0 -0 -0 -0 -0 -0 -0 0 0 0 0 0 0 0 0 0 0 0 0 nan
nan -0 -0 -0 -0 -0 -0 -0 -0 -0 -0 -0 -0 -0 -0 -0 -0 -0 -0 -0 -0 -0 -0 -0 -0 -0 -0 -0 -0 -0 -0 -0 -0 -0 -0 0 0 0 0 0 0 nan
nan -0 -0 -0 -0 -0 -0 -0 -0 -0 -0 -0 -0 -0 -0 -0 -0 -0 -0 -0 -0 -0 -0 -0 -0 -0 -0 -0 -0 -0 -0 -0 -0 -0 -0 -0 -0 -0 0 0 0 nan
nan -1 -1 -1 -1 -1 -1 -1 -0 -0 -1 -0 -0 -0 -0 -0 -0 -0 -0 -0 -0 -0 -0 -0 -0 -0 -0 -0 -0 -0 -0 -0 -0 -0 -0 -0 -0 -0 -0 -0 0 nan
nan -1 -1 -1 -1 -1 -1 -1 -1 -1 -1 -1 -1 -1 -1 -1 -1 -1 -1 -0 -0 -0 -0 -0 -0 -0 -0 -0 -0 -0 -0 -0 -0 -0 -0 -0 -0 -0 -0 -0 0 nan
nan -1 -1 -1 -1 -1 -1 -1 -1 -1 -1 -1 -1 -1 -1 -1 -1 -1 -1 -1 -1 -0 -0 -0 -0 -0 -0 -0 -0 -0 -1 -0 -0 -0 -0 -0 -0 -0 -0 -0 -0 nan
nan -1 -1 -1 -1 -1 -1 -1 -1 -1 -1 -1 -1 -1 -1 -1 -1 -1 -1 -1 -1 -1 -0 -0 -0 -0 -0 -0 -0 -0 -0 -1 -1 -0 -0 -0 -0 -0 -0 -0 0 nan
nan -1 -1 -1 -1 -1 -1 -1 -1 -1 -1 -1 -1 -1 -1 -1 -1 -1 -1 -1 -1 -1 -1 -0 -0 -0 -0 -0 0 0 -0 -0 -1 -1 -1 -0 -0 -0 -0 -0 -0 nan
nan -1 -1 -1 -1 -1 -1 -2 -2 -1 -2 -2 -2 -1 -1 -1 -1 -1 -1 -1 -1 -1 -1 -0 -0 -0 -0 -0 0 0 0 0 -0 -1 -1 -1 -1 -1 -1 -1 -1 nan
nan -1 -1 -1 -1 -2 -1 -2 -2 -2 -2 -2 -2 -2 -2 -2 -2 -2 -1 -1 -1 -2 -1 -1 -0 -0 0 0 -0 -0 -0 0 0 -0 -1 -1 -1 -1 -1 -1 -1 nan
nan -1 -1 -1 -1 -2 -2 -2 -2 -2 -2 -2 -2 -2 -2 -2 -2 -2 -2 -2 -1 -1 -2 -1 -0 -0 -0 -0 -0 -0 -0 0 0 0 -0 -1 -1 -0 -1 -0 -0 nan
nan -1 -1 -1 -1 -1 -1 -2 -2 -2 -2 -2 -2 -2 -2 -2 -2 -2 -2 -2 -1 -1 -2 -1 -1 -1 -1 -1 -0 -0 0 -0 -0 -0 -0 -1 -1 -1 -0 0 0 nan
nan -1 -1 -1 -1 -1 -1 -1 -1 -1 -1 -2 -2 -2 -2 -2 -2 -1 -1 -1 -1 -1 -1 -1 -1 -1 -1 -1 -0 -0 -0 -0 -0 -0 -0 -0 -0 -0 -1 -1 -1 nan
nan -1 -1 -1 -1 -1 -1 -1 -1 -1 -1 -1 -1 -2 -2 -2 -1 -1 -1 -1 -1 -1 -1 -1 -1 -1 -1 -1 -0 -0 -0 -0 0 0 0 0 0 -1 -2 -2 -1 nan
nan -1 -1 -1 -1 -1 -1 -1 -1 -1 -1 -1 -1 -1 -1 -1 -1 -1 -1 -1 -1 -1 -1 -1 -1 -1 -1 -1 -1 -0 0 1 1 0 -0 -0 -1 -2 -2 -2 -2 nan
nan nan nan nan nan nan nan nan nan nan nan nan nan nan nan nan nan nan nan nan nan nan nan nan nan nan nan nan nan nan nan nan nan nan nan nan nan nan nan nan nan nan
Wind_Speed
3 4 5 6 6 6 6 6 6 6 6 6 7 8 8 9 9 11 12 11 10 11 13 16 20 25 28 28 29 30 30 28 26 26 25 25 24 24 24 24 24 25
2 3 4 5 6 7 7 7 7 8 8 8 8 9 9 9 10 11 13 13 12 12 13 14 17 22 25 26 27 27 27 26 26 25 24 24 23 24 24 23 23 23
2 3 4 5 6 6 7 8 8 9 9 9 9 9 10 10 11 12 14 14 13 13 13 13 14 18 23 25 25 26 26 26 26 24 23 23 23 24 23 23 23 23
2 2 3 4 5 6 7 8 9 9 10 10 10 11 11 11 12 13 15 15 15 15 14 14 14 15 19 22 24 25 25 26 26 24 23 23 23 24 23 23 23 23
2 2 2 3 4 6 7 8 9 10 11 12 12 12 13 13 14 14 15 16 17 17 17 17 16 16 17 18 20 22 23 23 24 23 23 23 23 23 23 23 24 24
4 3 2 2 2 3 5 6 7 9 10 12 12 13 14 15 16 16 17 17 18 19 19 19 18 18 18 18 19 20 20 20 20 21 22 23 23 23 24 24 26 26
7 6 5 3 2 0 2 3 4 6 7 9 10 11 12 14 15 16 17 18 19 20 20 20 20 20 20 20 21 21 21 21 21 22 23 24 24 25 26 26 27 28
9 8 7 6 4 3 2 1 0 2 3 4 5 7 8 10 12 14 15 17 19 20 21 22 22 21 21 21 22 22 23 23 23 24 25 26 26 27 27 27 28 28
8 7 7 6 5 4 4 3 2 2 1 2 2 3 4 5 7 8 10 12 14 17 19 20 21 22 22 22 23 23 24 24 25 25 26 27 27 28 28 28 28 29
7 6 6 5 4 4 4 4 3 3 3 3 3 3 4 4 5 5 6 7 9 11 13 15 17 18 20 22 23 24 24 25 26 26 27 28 28 29 29 29 30 30
6 6 5 5 5 5 4 4 4 4 4 4 4 5 5 5 6 6 6 7 7 8 9 10 11 13 15 16 18 20 21 23 24 25 26 27 28 28 29 30 30 30
6 6 6 6 6 6 6 6 6 6 6 6 6 6 7 7 8 8 9 9 9 10 10 10 11 11 12 13 14 15 17 18 20 21 23 24 25 26 27 28 28 29
7 7 8 8 8 8 8 8 8 8 8 8 8 8 9 9 9 10 11 11 11 12 12 12 13 13 14 14 15 15 16 17 18 19 20 21 22 23 24 25 26 27
9 9 10 9 10 10 10 10 10 10 10 10 11 11 11 11 12 12 12 13 13 13 14 14 14 14 15 16 17 17 18 19 19 20 20 21 21 22 22 23 23 24
11 12 12 12 12 12 12 12 12 12 12 12 13 13 13 13 14 14 14 15 15 15 16 16 16 16 16 17 18 19 20 21 21 21 22 22 22 23 23 23 24 24
13 14 14 14 14 14 14 15 15 15 15 15 15 15 15 15 16 16 17 17 17 17 17 17 17 17 18 19 19 20 22 23 23 23 24 24 24 24 25 25 25 25
16 17 17 17 17 17 17 17 18 18 18 18 18 18 18 18 18 18 19 19 20 19 19 19 19 19 19 20 20 21 22 23 24 25 25 26 26 27 27 27 27 27
19 20 20 20 20 20 21 21 21 22 22 22 22 21 22 21 21 21 21 21 21 22 22 22 21 21 21 21 21 22 22 23 25 26 27 27 28 28 28 29 29 29
21 22 22 23 23 23 24 24 25 25 26 26 26 25 25 25 25 24 24 23 24 24 24 23 23 23 22 22 22 22 23 23 24 26 27 28 28 29 29 29 30 30
23 23 24 24 25 26 27 27 28 29 29 30 30 29 29 28 28 27 26 25 25 25 25 25 24 24 23 22 22 23 23 23 24 26 28 29 29 29 29 30 30 30
24 25 25 26 27 28 29 30 31 31 32 33 33 32 32 31 30 29 28 27 26 26 26 26 24 24 23 23 24 24 23 23 25 27 28 29 29 29 30 30 30 29
26 27 28 29 29 31 31 32 33 34 34 35 35 35 34 32 31 30 28 27 26 26 26 26 24 22 23 23 23 23 23 24 26 27 27 28 29 29 30 29 28 29
28 29 30 31 32 33 34 35 35 35 35 35 35 34 33 32 31 29 27 26 25 24 25 26 24 22 22 22 22 21 21 23 25 26 26 27 27 28 29 29 27 27
29 30 32 33 34 35 35 36 36 36 35 34 33 32 31 30 28 27 26 25 24 23 23 24 24 22 21 22 21 20 20 21 22 22 23 23 24 25 27 29 28 27
30 32 33 34 35 36 36 36 36 35 34 32 31 29 28 27 25 25 25 24 23 22 21 22 22 22 20 20 20 19 18 17 17 18 20 22 24 26 28 28 28 28
31 33 33 34 34 34 34 34 33 32 31 30 28 27 26 25 24 24 24 23 21 21 21 21 21 21 20 20 19 18 16 16 16 18 21 24 25 26 26 25 26 26
Wind_Direction
244 242 244 241 241 241 240 240 240 242 245 247 250 254 256 256 249 236 233 242 258 267 266 263 258 251 244 239 236 233 231 229 230 232 235 237 238 240 242 243 245 247
253 255 254 254 254 253 253 252 249 247 245 242 239 241 242 242 241 237 236 244 256 264 264 261 258 250 241 235 231 230 231 232 233 234 235 237 238 240 241 242 243 244
230 241 246 251 253 254 256 255 255 254 252 251 246 241 238 235 235 235 235 241 248 255 258 257 256 250 240 233 230 232 234 234 234 234 235 235 236 238 238 237 237 238
183 207 225 235 239 243 248 249 251 253 253 254 252 249 245 240 238 240 241 243 244 247 250 251 252 249 241 234 234 236 236 233 231 230 232 234 233 234 233 231 232 233
114 150 186 212 224 233 239 240 243 245 247 248 249 249 248 245 243 243 243 245 246 248 249 250 251 251 248 244 242 241 239 234 231 231 233 235 235 234 233 232 233 234
85 94 115 153 203 226 235 238 239 239 242 244 244 245 244 244 244 243 243 245 247 250 253 254 255 254 254 253 251 248 246 243 240 240 242 244 243 242 240 240 240 240
72 74 76 76 79 157 230 234 235 239 242 244 246 248 247 246 246 245 244 244 245 248 251 254 255 255 254 254 253 251 249 248 247 246 247 248 248 248 246 245 245 244
64 66 66 64 64 65 70 92 206 244 252 255 257 258 258 256 254 251 249 248 248 248 250 251 252 252 252 251 251 251 250 249 248 246 247 248 248 248 247 246 246 246
61 62 63 61 59 58 59 58 49 38 356 313 292 282 277 272 268 264 260 257 256 254 253 253 254 253 252 251 251 251 252 251 250 248 248 248 248 248 248 248 247 247
51 53 51 46 43 41 39 37 29 18 358 339 325 311 303 295 288 282 277 272 267 264 262 259 258 257 256 256 255 254 254 254 253 252 251 251 251 251 251 250 250 249
33 31 26 22 22 20 15 10 1 350 339 328 318 310 302 296 293 288 284 280 276 272 269 266 264 262 260 260 260 259 259 259 258 257 256 255 255 254 254 253 252 252
15 13 9 5 3 359 354 349 342 334 325 318 312 305 299 294 292 289 285 282 278 274 271 269 268 266 265 264 263 262 261 262 262 261 260 259 258 257 257 256 255 254
6 4 359 355 352 346 342 338 333 328 322 316 312 305 300 296 291 288 287 284 281 278 274 272 271 269 269 268 266 265 263 262 261 261 261 260 259 259 258 258 257 256
1 358 354 350 346 341 336 332 327 324 321 316 313 309 304 300 295 291 289 287 284 282 280 277 275 273 272 271 270 268 266 264 263 262 262 262 261 260 259 258 257 256
354 351 348 344 341 336 333 329 325 322 320 316 313 310 306 303 300 296 292 289 286 284 283 282 280 278 276 274 272 271 269 268 267 266 266 265 264 263 262 261 259 258
346 343 342 339 337 335 332 330 327 323 320 318 315 311 308 304 300 297 294 290 287 284 282 281 280 278 276 274 274 273 272 271 270 269 268 267 266 266 265 264 262 261
338 336 336 334 333 332 330 329 327 324 321 319 316 314 310 307 303 299 295 291 288 284 281 279 278 275 274 273 273 273 273 273 272 270 268 267 267 266 265 264 263 263
333 332 331 330 329 328 327 326 325 323 322 319 317 315 312 309 306 302 299 295 290 286 283 280 277 275 273 272 272 272 272 273 273 272 270 268 266 265 264 264 263 262
328 327 327 326 326 325 325 324 323 322 321 319 318 316 314 312 308 304 301 298 293 288 285 281 278 276 273 272 271 269 268 269 270 270 269 268 268 267 266 265 263 263
322 322 322 322 322 322 322 322 321 321 321 319 317 316 315 313 310 307 303 300 295 290 286 282 280 277 275 273 269 267 265 265 265 265 265 266 268 269 268 267 266 266
318 318 319 319 319 319 319 319 319 319 318 318 316 316 315 313 311 308 305 301 296 292 287 284 281 279 277 274 271 269 268 265 262 263 266 267 267 267 268 269 270 269
317 316 317 318 317 317 317 317 317 316 316 315 314 314 313 313 311 308 304 300 296 293 290 287 284 282 279 275 273 272 270 267 265 265 267 269 269 269 269 269 269 270
315 315 316 316 316 316 315 315 314 314 313 312 311 311 311 310 309 306 304 301 297 294 292 289 287 285 280 277 275 274 271 269 268 269 270 272 273 272 271 269 268 269
312 313 313 313 313 313 313 312 311 310 309 309 308 308 308 307 306 304 302 301 300 297 295 292 290 288 284 281 278 276 274 273 274 275 275 273 271 271 272 273 273 271
309 309 309 310 310 309 309 308 307 306 306 305 306 306 306 305 304 302 301 301 300 299 296 294 292 290 288 285 282 278 276 276 278 277 273 269 269 272 276 279 279 276
307 307 306 306 306 305 304 303 302 302 303 303 304 305 304 304 304 302 301 300 300 299 297 296 294 292 290 287 284 280 275 270 269 270 270 272 276 280 283 284 284 283
Height
1461 1462 1463 1464 1465 1466 1467 1467 1468 1469 1470 1470 1471 1471 1471 1472 1473 1474 1475 1476 1477 1477 1478 1478 1478 1480 1481 1482 1483 1484 1485 1486 1486 1488 1488 1488 1489 1490 1491 1492 1493 1495
1461 1462 1463 1464 1465 1465 1466 1467 1467 1468 1468 1469 1469 1470 1470 1471 1471 1472 1473 1474 1475 1475 1475 1475 1476 1477 1478 1479 1481 1481 1482 1483 1484 1485 1485 1485 1486 1486 1487 1489 1490 1491
1462 1462 1463 1463 1464 1465 1465 1466 1467 1467 1468 1468 1469 1469 1469 1470 1470 1471 1471 1472 1473 1473 1473 1473 1473 1474 1475 1476 1478 1479 1479 1480 1481 1482 1482 1482 1483 1483 1484 1486 1486 1488
1462 1462 1463 1463 1464 1464 1465 1465 1466 1466 1467 1467 1468 1468 1468 1469 1469 1470 1470 1471 1471 1471 1471 1472 1472 1472 1473 1473 1474 1474 1475 1476 1477 1478 1478 1478 1479 1480 1481 1482 1483 1484
1463 1463 1463 1463 1463 1464 1464 1464 1464 1465 1465 1466 1466 1467 1467 1467 1468 1468 1469 1469 1469 1470 1470 1470 1470 1470 1471 1471 1471 1471 1472 1472 1473 1474 1475 1475 1476 1477 1478 1479 1479 1480
1464 1464 1464 1464 1464 1464 1464 1464 1464 1464 1464 1464 1465 1465 1465 1465 1466 1466 1467 1467 1468 1468 1468 1468 1468 1468 1469 1469 1468 1469 1469 1470 1471 1472 1472 1473 1474 1474 1475 1476 1476 1477
1465 1465 1465 1465 1465 1464 1464 1464 1464 1463 1464 1464 1464 1464 1464 1464 1464 1464 1464 1465 1465 1465 1466 1466 1466 1466 1467 1466 1466 1467 1467 1468 1468 1469 1469 1470 1471 1471 1472 1473 1473 1473
1467 1466 1466 1466 1466 1465 1465 1464 1464 1464 1464 1464 1463 1463 1463 1463 1463 1462 1462 1462 1462 1463 1463 1463 1463 1463 1464 1464 1464 1464 1464 1465 1465 1466 1466 1466 1467 1467 1468 1469 1469 1470
1468 1467 1467 1467 1466 1466 1465 1465 1464 1464 1464 1464 1463 1463 1462 1462 1462 1461 1461 1461 1460 1460 1460 1460 1460 1460 1461 1461 1461 1461 1461 1462 1462 1463 1463 1463 1463 1464 1464 1465 1465 1466
1468 1468 1467 1467 1467 1466 1466 1465 1465 1464 1464 1463 1463 1463 1462 1462 1461 1461 1460 1460 1459 1459 1458 1458 1458 1458 1458 1458 1458 1458 1459 1459 1459 1460 1460 1460 1460 1461 1461 1462 1462 1462
1468 1468 1467 1467 1466 1466 1465 1465 1464 1464 1464 1463 1463 1462 1461 1461 1460 1460 1460 1459 1458 1458 1457 1457 1456 1456 1456 1456 1456 1456 1456 1456 1456 1456 1457 1457 1457 1457 1458 1458 1458 1459
1468 1468 1467 1466 1466 1465 1465 1464 1464 1463 1463 1462 1462 1461 1460 1460 1459 1459 1459 1458 1457 1457 1456 1456 1455 1455 1455 1454 1454 1454 1454 1454 1453 1453 1453 1453 1454 1454 1454 1454 1455 1455
1468 1468 1467 1466 1466 1465 1464 1464 1463 1463 1462 1461 1461 1460 1459 1459 1458 1458 1457 1456 1456 1455 1455 1454 1454 1454 1453 1453 1452 1452 1452 1451 1451 1451 1451 1451 1451 1451 1451 1451 1451 1452
1468 1467 1466 1466 1465 1465 1464 1463 1463 1462 1461 1460 1460 1459 1458 1457 1456 1456 1455 1455 1454 1453 1453 1452 1452 1452 1451 1451 1450 1449 1449 1449 1448 1448 1448 1448 1448 1448 1448 1448 1448 1448
1467 1467 1466 1465 1464 1464 1463 1462 1462 1461 1460 1459 1459 1458 1457 1456 1455 1454 1453 1453 1452 1451 1451 1450 1450 1449 1449 1448 1447 1447 1446 1446 1446 1446 1446 1445 1445 1445 1445 1445 1445 1445
1466 1466 1465 1464 1463 1462 1462 1461 1460 1459 1458 1458 1457 1456 1455 1454 1453 1452 1451 1451 1450 1449 1448 1448 1447 1447 1446 1445 1445 1444 1443 1443 1443 1443 1443 1442 1442 1442 1442 1442 1442 1442
1465 1464 1463 1463 1461 1461 1460 1459 1458 1457 1456 1455 1454 1453 1453 1452 1451 1450 1449 1448 1447 1447 1446 1445 1445 1444 1443 1443 1442 1442 1441 1440 1440 1440 1439 1439 1439 1439 1438 1438 1438 1438
1464 1463 1462 1461 1460 1459 1457 1456 1455 1454 1453 1452 1452 1451 1450 1449 1448 1447 1446 1445 1444 1443 1443 1442 1441 1441 1440 1440 1440 1439 1438 1437 1436 1436 1435 1435 1435 1435 1435 1434 1434 1434
1462 1461 1460 1459 1458 1456 1455 1454 1453 1452 1450 1449 1448 1447 1446 1445 1444 1443 1442 1441 1440 1439 1439 1438 1438 1437 1437 1437 1436 1435 1435 1434 1433 1432 1431 1430 1430 1430 1430 1430 1430 1430
1460 1459 1458 1457 1455 1454 1453 1451 1450 1449 1448 1446 1445 1444 1443 1441 1440 1439 1438 1437 1436 1435 1434 1434 1434 1433 1433 1432 1432 1431 1431 1430 1429 1427 1426 1426 1426 1426 1425 1425 1425 1425
1458 1457 1456 1454 1453 1452 1450 1449 1447 1446 1445 1443 1441 1440 1439 1438 1436 1435 1434 1433 1432 1431 1429 1429 1429 1429 1428 1428 1427 1427 1426 1426 1424 1423 1422 1422 1421 1421 1421 1420 1420 1420
1455 1454 1453 1451 1450 1449 1447 1446 1444 1443 1442 1440 1438 1437 1435 1434 1433 1431 1430 1429 1427 1426 1425 1424 1424 1424 1424 1423 1423 1423 1422 1421 1420 1419 1418 1417 1417 1416 1416 1416 1416 1416
1453 1451 1450 1448 1447 1445 1444 1442 1441 1439 1438 1437 1435 1433 1432 1430 1429 1427 1426 1425 1423 1423 1421 1419 1420 1420 1419 1419 1419 1419 1418 1417 1416 1415 1414 1413 1413 1412 1411 1411 1411 1412
1450 1449 1447 1445 1443 1442 1440 1438 1437 1435 1434 1433 1431 1429 1428 1427 1425 1423 1422 1421 1420 1419 1418 1416 1415 1415 1415 1415 1415 1414 1414 1413 1412 1411 1410 1409 1408 1407 1406 1406 1407 1407
1447 1445 1444 1442 1440 1438 1436 1435 1433 1431 1430 1429 1427 1426 1424 1423 1421 1420 1418 1418 1417 1415 1414 1413 1412 1411 1411 1411 1410 1411 1410 1409 1409 1407 1406 1404 1404 1403 1402 1402 1402 1402
1444 1442 1440 1438 1436 1435 1433 1431 1429 1428 1426 1425 1424 1422 1421 1419 1418 1417 1415 1414 1414 1412 1411 1410 1409 1408 1408 1407 1407 1407 1407 1406 1405 1403 1402 1401 1400 1400 1399 1398 1398 1397